#datetime,building,power
2023-11-28T00:00:00,pth,1.20
2023-11-28T00:02:00,pth,3.60
2023-11-28T00:03:00,pth,1.20
2023-11-28T00:05:00,pth,3.60
2023-11-28T00:07:00,pth,2.40
2023-11-28T00:08:00,pth,1.20
2023-11-28T00:09:00,pth,2.40
2023-11-28T00:11:00,pth,2.40
2023-11-28T00:13:00,pth,2.40
2023-11-28T00:14:00,pth,1.19
2023-11-28T00:15:00,pth,1.20
2023-11-28T00:17:00,pth,2.40
2023-11-28T00:19:00,pth,3.60
2023-11-28T00:21:00,pth,2.40
2023-11-28T00:22:00,pth,1.20
2023-11-28T00:24:00,pth,3.60
2023-11-28T00:25:00,pth,2.40
2023-11-28T00:26:00,pth,2.40
2023-11-28T00:28:00,pth,2.40
2023-11-28T00:30:00,pth,2.40
2023-11-28T00:32:00,pth,3.60
2023-11-28T00:33:00,pth,1.20
2023-11-28T00:35:00,pth,2.40
2023-11-28T00:37:00,pth,3.60
2023-11-28T00:38:00,pth,1.20
2023-11-28T00:40:00,pth,2.40
2023-11-28T00:42:00,pth,3.60
2023-11-28T00:44:00,pth,2.40
2023-11-28T00:46:00,pth,3.60
2023-11-28T00:47:00,pth,1.20
2023-11-28T00:49:00,pth,3.60
2023-11-28T00:51:00,pth,2.40
2023-11-28T00:53:00,pth,4.80
2023-11-28T00:55:00,pth,3.60
2023-11-28T00:57:00,pth,2.40
2023-11-28T00:58:00,pth,1.20
2023-11-28T00:59:00,pth,1.19
2023-11-28T01:01:00,pth,2.40
2023-11-28T01:02:00,pth,2.40
2023-11-28T01:03:00,pth,1.20
2023-11-28T01:05:00,pth,2.40
2023-11-28T01:07:00,pth,2.40
2023-11-28T01:09:00,pth,2.40
2023-11-28T01:11:00,pth,2.40
2023-11-28T01:12:00,pth,1.20
2023-11-28T01:13:00,pth,1.20
2023-11-28T01:15:00,pth,2.40
2023-11-28T01:17:00,pth,3.60
2023-11-28T01:19:00,pth,2.40
2023-11-28T01:21:00,pth,2.40
2023-11-28T01:23:00,pth,2.40
2023-11-28T01:24:00,pth,1.20
2023-11-28T01:25:00,pth,1.20
2023-11-28T01:26:00,pth,1.20
2023-11-28T01:28:00,pth,2.40
2023-11-28T01:30:00,pth,2.40
2023-11-28T01:31:00,pth,1.20
2023-11-28T01:33:00,pth,2.40
2023-11-28T01:35:00,pth,3.60
2023-11-28T01:36:00,pth,1.20
2023-11-28T01:38:00,pth,2.40
2023-11-28T01:40:00,pth,3.60
2023-11-28T01:41:00,pth,1.20
2023-11-28T01:43:00,pth,2.40
2023-11-28T01:45:00,pth,2.40
2023-11-28T01:46:00,pth,1.20
2023-11-28T01:48:00,pth,2.40
2023-11-28T01:49:00,pth,1.20
2023-11-28T01:51:00,pth,2.40
2023-11-28T01:52:00,pth,1.20
2023-11-28T01:53:00,pth,1.20
2023-11-28T01:55:00,pth,2.40
2023-11-28T01:57:00,pth,2.40
2023-11-28T01:58:00,pth,1.20
2023-11-28T02:00:00,pth,2.40
2023-11-28T02:01:00,pth,1.20
2023-11-28T02:03:00,pth,2.40
2023-11-28T02:04:00,pth,1.20
2023-11-28T02:06:00,pth,3.60
2023-11-28T02:07:00,pth,1.20
2023-11-28T02:09:00,pth,2.40
2023-11-28T02:10:00,pth,1.20
2023-11-28T02:11:00,pth,1.20
2023-11-28T02:13:00,pth,2.40
2023-11-28T02:14:00,pth,1.20
2023-11-28T02:16:00,pth,2.40
2023-11-28T02:18:00,pth,2.40
2023-11-28T02:20:00,pth,1.20
2023-11-28T02:21:00,pth,1.20
2023-11-28T02:23:00,pth,2.40
2023-11-28T02:25:00,pth,2.40
2023-11-28T02:26:00,pth,1.20
2023-11-28T02:27:00,pth,1.20
2023-11-28T02:29:00,pth,1.19
2023-11-28T02:31:00,pth,2.40
2023-11-28T02:33:00,pth,2.40
2023-11-28T02:35:00,pth,1.20
2023-11-28T02:37:00,pth,2.40
2023-11-28T02:38:00,pth,1.20
2023-11-28T02:39:00,pth,1.20
2023-11-28T02:41:00,pth,2.40
2023-11-28T02:43:00,pth,2.40
2023-11-28T02:45:00,pth,2.40
2023-11-28T02:47:00,pth,1.20
2023-11-28T02:49:00,pth,2.40
2023-11-28T02:51:00,pth,1.19
2023-11-28T02:52:00,pth,1.20
2023-11-28T02:53:00,pth,1.20
2023-11-28T02:55:00,pth,2.40
2023-11-28T02:57:00,pth,2.40
2023-11-28T02:59:00,pth,1.20
2023-11-28T03:01:00,pth,2.40
2023-11-28T03:02:00,pth,1.20
2023-11-28T03:04:00,pth,1.20
2023-11-28T03:06:00,pth,2.40
2023-11-28T03:08:00,pth,2.40
2023-11-28T03:10:00,pth,2.40
2023-11-28T03:12:00,pth,2.40
2023-11-28T03:14:00,pth,2.40
2023-11-28T03:16:00,pth,2.40
2023-11-28T03:17:00,pth,1.20
2023-11-28T03:18:00,pth,1.19
2023-11-28T03:20:00,pth,2.40
2023-11-28T03:21:00,pth,1.20
2023-11-28T03:23:00,pth,1.20
2023-11-28T03:25:00,pth,2.40
2023-11-28T03:27:00,pth,2.40
2023-11-28T03:29:00,pth,2.40
2023-11-28T03:30:00,pth,1.20
2023-11-28T03:32:00,pth,2.40
2023-11-28T03:34:00,pth,2.40
2023-11-28T03:37:00,pth,2.40
2023-11-28T03:38:00,pth,1.20
2023-11-28T03:39:00,pth,1.19
2023-11-28T03:41:00,pth,1.20
2023-11-28T03:42:00,pth,1.20
2023-11-28T03:44:00,pth,2.40
2023-11-28T03:45:00,pth,1.20
2023-11-28T03:47:00,pth,2.40
2023-11-28T03:49:00,pth,2.40
2023-11-28T03:51:00,pth,2.40
2023-11-28T03:53:00,pth,1.19
2023-11-28T03:54:00,pth,1.20
2023-11-28T03:56:00,pth,2.40
2023-11-28T03:58:00,pth,2.40
2023-11-28T03:59:00,pth,1.20
2023-11-28T04:01:00,pth,1.19
2023-11-28T04:02:00,pth,1.20
2023-11-28T04:04:00,pth,2.40
2023-11-28T04:05:00,pth,1.20
2023-11-28T04:07:00,pth,2.40
2023-11-28T04:09:00,pth,2.40
2023-11-28T04:11:00,pth,2.40
2023-11-28T04:13:00,pth,2.40
2023-11-28T04:15:00,pth,2.40
2023-11-28T04:17:00,pth,2.40
2023-11-28T04:19:00,pth,1.20
2023-11-28T04:20:00,pth,1.19
2023-11-28T04:22:00,pth,2.40
2023-11-28T04:24:00,pth,2.40
2023-11-28T04:26:00,pth,2.40
2023-11-28T04:28:00,pth,2.40
2023-11-28T04:29:00,pth,1.20
2023-11-28T04:31:00,pth,2.40
2023-11-28T04:33:00,pth,2.40
2023-11-28T04:35:00,pth,2.40
2023-11-28T04:37:00,pth,1.20
2023-11-28T04:39:00,pth,2.40
2023-11-28T04:41:00,pth,2.40
2023-11-28T04:43:00,pth,2.40
2023-11-28T04:45:00,pth,2.40
2023-11-28T04:47:00,pth,2.40
2023-11-28T04:48:00,pth,1.20
2023-11-28T04:49:00,pth,1.20
2023-11-28T04:51:00,pth,2.40
2023-11-28T04:53:00,pth,2.40
2023-11-28T04:55:00,pth,1.20
2023-11-28T04:57:00,pth,2.40
2023-11-28T04:59:00,pth,2.40
2023-11-28T05:01:00,pth,2.40
2023-11-28T05:03:00,pth,2.40
2023-11-28T05:05:00,pth,2.40
2023-11-28T05:07:00,pth,1.19
2023-11-28T05:08:00,pth,1.20
2023-11-28T05:10:00,pth,2.40
2023-11-28T05:12:00,pth,1.20
2023-11-28T05:14:00,pth,2.40
2023-11-28T05:15:00,pth,1.20
2023-11-28T05:17:00,pth,2.40
2023-11-28T05:19:00,pth,1.20
2023-11-28T05:21:00,pth,2.40
2023-11-28T05:23:00,pth,2.40
2023-11-28T05:24:00,pth,1.20
2023-11-28T05:25:00,pth,1.20
2023-11-28T05:27:00,pth,2.40
2023-11-28T05:29:00,pth,1.19
2023-11-28T05:31:00,pth,2.40
2023-11-28T05:33:00,pth,2.40
2023-11-28T05:35:00,pth,2.40
2023-11-28T05:36:00,pth,1.20
2023-11-28T05:37:00,pth,1.20
2023-11-28T05:39:00,pth,2.40
2023-11-28T05:40:00,pth,1.20
2023-11-28T05:43:00,pth,2.40
2023-11-28T05:45:00,pth,2.40
2023-11-28T05:47:00,pth,2.40
2023-11-28T05:48:00,pth,1.20
2023-11-28T05:50:00,pth,1.19
2023-11-28T05:51:00,pth,1.20
2023-11-28T05:52:00,pth,1.20
2023-11-28T05:53:00,pth,1.20
2023-11-28T05:55:00,pth,2.40
2023-11-28T05:57:00,pth,2.40
2023-11-28T05:59:00,pth,2.40
2023-11-28T06:01:00,pth,2.40
2023-11-28T06:02:00,pth,1.19
2023-11-28T06:04:00,pth,2.40
2023-11-28T06:06:00,pth,3.60
2023-11-28T06:08:00,pth,2.40
2023-11-28T06:10:00,pth,3.60
2023-11-28T06:11:00,pth,1.20
2023-11-28T06:13:00,pth,2.40
2023-11-28T06:15:00,pth,2.40
2023-11-28T06:17:00,pth,1.20
2023-11-28T06:18:00,pth,1.20
2023-11-28T06:20:00,pth,2.40
2023-11-28T06:21:00,pth,1.20
2023-11-28T06:23:00,pth,2.40
2023-11-28T06:25:00,pth,2.40
2023-11-28T06:26:00,pth,1.19
2023-11-28T06:28:00,pth,1.20
2023-11-28T06:30:00,pth,2.40
2023-11-28T06:31:00,pth,1.20
2023-11-28T06:33:00,pth,2.40
2023-11-28T06:35:00,pth,2.40
2023-11-28T06:36:00,pth,1.20
2023-11-28T06:38:00,pth,2.40
2023-11-28T06:39:00,pth,1.20
2023-11-28T06:40:00,pth,1.19
2023-11-28T06:42:00,pth,2.40
2023-11-28T06:44:00,pth,2.40
2023-11-28T06:45:00,pth,1.20
2023-11-28T06:47:00,pth,2.40
2023-11-28T06:49:00,pth,2.40
2023-11-28T06:50:00,pth,1.20
2023-11-28T06:52:00,pth,2.40
2023-11-28T06:54:00,pth,2.40
2023-11-28T06:55:00,pth,1.20
2023-11-28T06:57:00,pth,2.40
2023-11-28T06:59:00,pth,2.40
2023-11-28T07:01:00,pth,2.40
2023-11-28T07:04:00,pth,3.60
2023-11-28T07:05:00,pth,1.19
2023-11-28T07:07:00,pth,2.40
2023-11-28T07:09:00,pth,2.40
2023-11-28T07:10:00,pth,1.20
2023-11-28T07:12:00,pth,2.40
2023-11-28T07:13:00,pth,1.20
2023-11-28T07:14:00,pth,1.20
2023-11-28T07:15:00,pth,1.20
2023-11-28T07:17:00,pth,3.60
2023-11-28T07:19:00,pth,2.40
2023-11-28T07:20:00,pth,1.20
2023-11-28T07:22:00,pth,2.40
2023-11-28T07:23:00,pth,2.40
2023-11-28T07:24:00,pth,1.20
2023-11-28T07:26:00,pth,1.20
2023-11-28T07:27:00,pth,1.20
2023-11-28T07:29:00,pth,2.40
2023-11-28T07:31:00,pth,2.40
2023-11-28T07:32:00,pth,1.20
2023-11-28T07:34:00,pth,1.20
2023-11-28T07:36:00,pth,2.40
2023-11-28T07:38:00,pth,1.20
2023-11-28T07:40:00,pth,1.20
2023-11-28T07:42:00,pth,1.20
2023-11-28T07:44:00,pth,2.40
2023-11-28T07:46:00,pth,1.19
2023-11-28T07:48:00,pth,2.40
2023-11-28T07:50:00,pth,1.20
2023-11-28T07:51:00,pth,1.20
2023-11-28T07:53:00,pth,1.20
2023-11-28T07:54:00,pth,1.19
2023-11-28T07:56:00,pth,2.40
2023-11-28T07:57:00,pth,1.20
2023-11-28T07:59:00,pth,1.20
2023-11-28T08:01:00,pth,2.40
2023-11-28T08:02:00,pth,1.19
2023-11-28T08:05:00,pth,2.40
2023-11-28T08:07:00,pth,3.60
2023-11-28T08:09:00,pth,3.60
2023-11-28T08:11:00,pth,3.60
2023-11-28T08:13:00,pth,1.19
2023-11-28T08:15:00,pth,2.40
2023-11-28T08:17:00,pth,1.20
2023-11-28T08:19:00,pth,2.40
2023-11-28T08:21:00,pth,2.40
2023-11-28T08:22:00,pth,1.20
2023-11-28T08:24:00,pth,2.40
2023-11-28T08:26:00,pth,1.20
2023-11-28T08:27:00,pth,1.20
2023-11-28T08:29:00,pth,1.19
2023-11-28T08:31:00,pth,2.40
2023-11-28T08:33:00,pth,1.20
2023-11-28T08:35:00,pth,2.40
2023-11-28T08:37:00,pth,1.19
2023-11-28T08:39:00,pth,2.40
2023-11-28T08:41:00,pth,1.20
2023-11-28T08:42:00,pth,1.20
2023-11-28T08:44:00,pth,2.40
2023-11-28T08:46:00,pth,1.20
2023-11-28T08:47:00,pth,1.20
2023-11-28T08:48:00,pth,1.20
2023-11-28T08:49:00,pth,1.20
2023-11-28T08:52:00,pth,3.60
2023-11-28T08:54:00,pth,2.40
2023-11-28T08:56:00,pth,2.40
2023-11-28T08:58:00,pth,1.20
2023-11-28T08:59:00,pth,1.19
2023-11-28T09:01:00,pth,1.20
2023-11-28T09:03:00,pth,2.40
2023-11-28T09:05:00,pth,1.20
2023-11-28T09:06:00,pth,2.40
2023-11-28T09:08:00,pth,2.40
2023-11-28T09:10:00,pth,2.40
2023-11-28T09:12:00,pth,2.40
2023-11-28T09:14:00,pth,2.40
2023-11-28T09:16:00,pth,3.60
2023-11-28T09:17:00,pth,2.40
2023-11-28T09:18:00,pth,1.20
2023-11-28T09:20:00,pth,3.60
2023-11-28T09:21:00,pth,2.40
2023-11-28T09:22:00,pth,1.20
2023-11-28T09:24:00,pth,2.40
2023-11-28T09:26:00,pth,2.40
2023-11-28T09:28:00,pth,2.40
2023-11-28T09:29:00,pth,1.20
2023-11-28T09:31:00,pth,3.60
2023-11-28T09:33:00,pth,2.40
2023-11-28T09:34:00,pth,1.20
2023-11-28T09:36:00,pth,2.40
2023-11-28T09:38:00,pth,1.20
2023-11-28T09:40:00,pth,2.40
2023-11-28T09:41:00,pth,1.20
2023-11-28T09:43:00,pth,2.40
2023-11-28T09:45:00,pth,2.40
2023-11-28T09:47:00,pth,1.19
2023-11-28T09:49:00,pth,2.40
2023-11-28T09:51:00,pth,1.20
2023-11-28T09:52:00,pth,1.20
2023-11-28T09:54:00,pth,1.20
2023-11-28T09:56:00,pth,2.40
2023-11-28T09:58:00,pth,1.20
2023-11-28T09:59:00,pth,1.20
2023-11-28T10:01:00,pth,2.40
2023-11-28T10:03:00,pth,1.19
2023-11-28T10:05:00,pth,2.40
2023-11-28T10:06:00,pth,1.20
2023-11-28T10:07:00,pth,1.20
2023-11-28T10:08:00,pth,1.20
2023-11-28T10:10:00,pth,1.19
2023-11-28T10:11:00,pth,1.20
2023-11-28T10:14:00,pth,1.20
2023-11-28T10:15:00,pth,1.20
2023-11-28T10:17:00,pth,2.40
2023-11-28T10:20:00,pth,2.40
2023-11-28T10:22:00,pth,1.20
2023-11-28T10:25:00,pth,1.20
2023-11-28T10:26:00,pth,1.20
2023-11-28T10:28:00,pth,1.20
2023-11-28T10:29:00,pth,1.20
2023-11-28T10:31:00,pth,1.19
2023-11-28T10:32:00,pth,1.20
2023-11-28T10:33:00,pth,1.20
2023-11-28T10:36:00,pth,1.20
2023-11-28T10:37:00,pth,1.20
2023-11-28T10:38:00,pth,1.20
2023-11-28T10:40:00,pth,1.19
2023-11-28T10:42:00,pth,1.20
2023-11-28T10:43:00,pth,1.20
2023-11-28T10:45:00,pth,1.20
2023-11-28T10:47:00,pth,1.20
2023-11-28T10:49:00,pth,1.20
2023-11-28T10:50:00,pth,1.19
2023-11-28T10:52:00,pth,1.20
2023-11-28T10:53:00,pth,1.20
2023-11-28T10:55:00,pth,1.20
2023-11-28T10:56:00,pth,1.20
2023-11-28T10:58:00,pth,1.20
2023-11-28T11:00:00,pth,2.40
2023-11-28T11:02:00,pth,1.20
2023-11-28T11:04:00,pth,1.20
2023-11-28T11:05:00,pth,1.20
2023-11-28T11:07:00,pth,1.20
2023-11-28T11:08:00,pth,1.20
2023-11-28T11:10:00,pth,1.19
2023-11-28T11:12:00,pth,2.40
2023-11-28T11:14:00,pth,1.20
2023-11-28T11:16:00,pth,1.20
2023-11-28T11:17:00,pth,1.20
2023-11-28T11:19:00,pth,1.19
2023-11-28T11:21:00,pth,1.20
2023-11-28T11:24:00,pth,1.20
2023-11-28T11:26:00,pth,2.40
2023-11-28T11:28:00,pth,1.20
2023-11-28T11:30:00,pth,1.19
2023-11-28T11:32:00,pth,1.20
2023-11-28T11:33:00,pth,1.20
2023-11-28T11:35:00,pth,1.20
2023-11-28T11:36:00,pth,1.20
2023-11-28T11:38:00,pth,1.20
2023-11-28T11:40:00,pth,2.40
2023-11-28T11:42:00,pth,1.20
2023-11-28T11:44:00,pth,2.40
2023-11-28T11:46:00,pth,1.20
2023-11-28T11:47:00,pth,1.20
2023-11-28T11:49:00,pth,2.40
2023-11-28T11:51:00,pth,1.20
2023-11-28T11:54:00,pth,1.20
2023-11-28T11:56:00,pth,2.40
2023-11-28T11:59:00,pth,2.40
2023-11-28T12:02:00,pth,2.40
2023-11-28T12:04:00,pth,1.20
2023-11-28T12:05:00,pth,1.20
2023-11-28T12:07:00,pth,2.40
2023-11-28T12:08:00,pth,1.20
2023-11-28T12:11:00,pth,2.40
2023-11-28T12:13:00,pth,1.20
2023-11-28T12:15:00,pth,1.20
2023-11-28T12:17:00,pth,2.40
2023-11-28T12:19:00,pth,2.40
2023-11-28T12:20:00,pth,1.20
2023-11-28T12:22:00,pth,2.40
2023-11-28T12:24:00,pth,1.20
2023-11-28T12:26:00,pth,2.40
2023-11-28T12:29:00,pth,2.40
2023-11-28T12:31:00,pth,1.19
2023-11-28T12:32:00,pth,1.20
2023-11-28T12:34:00,pth,1.20
2023-11-28T12:35:00,pth,1.20
2023-11-28T12:37:00,pth,1.20
2023-11-28T12:39:00,pth,2.40
2023-11-28T12:41:00,pth,1.20
2023-11-28T12:43:00,pth,2.40
2023-11-28T12:45:00,pth,3.60
2023-11-28T12:47:00,pth,3.60
2023-11-28T12:49:00,pth,1.20
2023-11-28T12:51:00,pth,2.40
2023-11-28T12:52:00,pth,1.19
2023-11-28T12:54:00,pth,2.40
2023-11-28T12:56:00,pth,1.20
2023-11-28T12:57:00,pth,1.20
2023-11-28T12:58:00,pth,1.20
2023-11-28T13:00:00,pth,2.40
2023-11-28T13:02:00,pth,2.40
2023-11-28T13:03:00,pth,1.20
2023-11-28T13:05:00,pth,1.20
2023-11-28T13:07:00,pth,2.40
2023-11-28T13:08:00,pth,1.20
2023-11-28T13:10:00,pth,2.40
2023-11-28T13:12:00,pth,2.40
2023-11-28T13:14:00,pth,1.19
2023-11-28T13:15:00,pth,1.20
2023-11-28T13:17:00,pth,1.20
2023-11-28T13:19:00,pth,2.40
2023-11-28T13:21:00,pth,1.20
2023-11-28T13:23:00,pth,2.40
2023-11-28T13:24:00,pth,1.20
2023-11-28T13:26:00,pth,1.20
2023-11-28T13:27:00,pth,1.20
2023-11-28T13:28:00,pth,1.20
2023-11-28T13:30:00,pth,1.19
2023-11-28T13:32:00,pth,2.40
2023-11-28T13:34:00,pth,2.40
2023-11-28T13:36:00,pth,2.40
2023-11-28T13:38:00,pth,1.20
2023-11-28T13:39:00,pth,1.20
2023-11-28T13:40:00,pth,1.20
2023-11-28T13:42:00,pth,2.40
2023-11-28T13:44:00,pth,1.20
2023-11-28T13:45:00,pth,1.19
2023-11-28T13:47:00,pth,2.40
2023-11-28T13:48:00,pth,1.20
2023-11-28T13:50:00,pth,2.40
2023-11-28T13:52:00,pth,3.60
2023-11-28T13:53:00,pth,1.20
2023-11-28T13:55:00,pth,2.40
2023-11-28T13:56:00,pth,1.19
2023-11-28T13:58:00,pth,2.40
2023-11-28T13:59:00,pth,1.20
2023-11-28T14:01:00,pth,2.40
2023-11-28T14:03:00,pth,2.40
2023-11-28T14:05:00,pth,1.20
2023-11-28T14:07:00,pth,2.40
2023-11-28T14:09:00,pth,2.40
2023-11-28T14:12:00,pth,2.40
2023-11-28T14:13:00,pth,1.20
2023-11-28T14:15:00,pth,2.40
2023-11-28T14:17:00,pth,1.20
2023-11-28T14:18:00,pth,1.19
2023-11-28T14:20:00,pth,1.20
2023-11-28T14:22:00,pth,2.40
2023-11-28T14:24:00,pth,1.20
2023-11-28T14:26:00,pth,1.20
2023-11-28T14:28:00,pth,1.19
2023-11-28T14:29:00,pth,1.20
2023-11-28T14:31:00,pth,1.20
2023-11-28T14:33:00,pth,2.40
2023-11-28T14:35:00,pth,1.20
2023-11-28T14:36:00,pth,1.19
2023-11-28T14:38:00,pth,1.20
2023-11-28T14:40:00,pth,3.60
2023-11-28T14:41:00,pth,2.40
2023-11-28T14:42:00,pth,2.40
2023-11-28T14:44:00,pth,1.20
2023-11-28T14:45:00,pth,1.20
2023-11-28T14:47:00,pth,1.20
2023-11-28T14:49:00,pth,1.20
2023-11-28T14:51:00,pth,1.19
2023-11-28T14:53:00,pth,2.40
2023-11-28T14:56:00,pth,2.40
2023-11-28T14:58:00,pth,1.20
2023-11-28T14:59:00,pth,1.19
2023-11-28T15:01:00,pth,2.40
2023-11-28T15:04:00,pth,2.40
2023-11-28T15:05:00,pth,1.20
2023-11-28T15:07:00,pth,2.40
2023-11-28T15:09:00,pth,1.20
2023-11-28T15:11:00,pth,2.40
2023-11-28T15:13:00,pth,1.20
2023-11-28T15:14:00,pth,1.20
2023-11-28T15:16:00,pth,1.19
2023-11-28T15:18:00,pth,1.20
2023-11-28T15:19:00,pth,1.20
2023-11-28T15:20:00,pth,1.20
2023-11-28T15:22:00,pth,2.40
2023-11-28T15:23:00,pth,1.19
2023-11-28T15:25:00,pth,2.40
2023-11-28T15:27:00,pth,1.20
2023-11-28T15:29:00,pth,1.20
2023-11-28T15:31:00,pth,2.40
2023-11-28T15:32:00,pth,1.20
2023-11-28T15:34:00,pth,2.40
2023-11-28T15:36:00,pth,1.20
2023-11-28T15:38:00,pth,1.20
2023-11-28T15:40:00,pth,1.19
2023-11-28T15:42:00,pth,2.40
2023-11-28T15:44:00,pth,1.20
2023-11-28T15:46:00,pth,2.40
2023-11-28T15:47:00,pth,1.20
2023-11-28T15:49:00,pth,2.40
2023-11-28T15:50:00,pth,1.20
2023-11-28T15:52:00,pth,1.20
2023-11-28T15:53:00,pth,1.20
2023-11-28T15:54:00,pth,1.20
2023-11-28T15:57:00,pth,2.40
2023-11-28T15:58:00,pth,1.20
2023-11-28T15:59:00,pth,1.20
2023-11-28T16:01:00,pth,2.40
2023-11-28T16:02:00,pth,1.19
2023-11-28T16:04:00,pth,2.40
2023-11-28T16:06:00,pth,1.20
2023-11-28T16:08:00,pth,2.40
2023-11-28T16:10:00,pth,2.40
2023-11-28T16:12:00,pth,2.40
2023-11-28T16:14:00,pth,2.40
2023-11-28T16:16:00,pth,2.40
2023-11-28T16:18:00,pth,2.40
2023-11-28T16:19:00,pth,1.20
2023-11-28T16:21:00,pth,2.40
2023-11-28T16:23:00,pth,2.40
2023-11-28T16:25:00,pth,3.60
2023-11-28T16:26:00,pth,1.20
2023-11-28T16:28:00,pth,2.40
2023-11-28T16:30:00,pth,3.60
2023-11-28T16:32:00,pth,4.80
2023-11-28T16:33:00,pth,1.20
2023-11-28T16:35:00,pth,4.80
2023-11-28T16:36:00,pth,2.40
2023-11-28T16:38:00,pth,4.80
2023-11-28T16:39:00,pth,2.40
2023-11-28T16:40:00,pth,2.40
2023-11-28T16:42:00,pth,3.60
2023-11-28T16:44:00,pth,3.60
2023-11-28T16:46:00,pth,3.60
2023-11-28T16:48:00,pth,3.60
2023-11-28T16:49:00,pth,2.40
2023-11-28T16:51:00,pth,3.60
2023-11-28T16:53:00,pth,3.60
2023-11-28T16:54:00,pth,1.19
2023-11-28T16:56:00,pth,4.80
2023-11-28T16:58:00,pth,3.60
2023-11-28T16:59:00,pth,2.40
2023-11-28T17:00:00,pth,2.40
2023-11-28T17:02:00,pth,3.60
2023-11-28T17:04:00,pth,3.60
2023-11-28T17:06:00,pth,4.80
2023-11-28T17:07:00,pth,1.20
2023-11-28T17:09:00,pth,3.60
2023-11-28T17:10:00,pth,2.40
2023-11-28T17:12:00,pth,4.80
2023-11-28T17:13:00,pth,1.20
2023-11-28T17:15:00,pth,3.60
2023-11-28T17:17:00,pth,2.40
2023-11-28T17:18:00,pth,1.20
2023-11-28T17:20:00,pth,3.60
2023-11-28T17:22:00,pth,3.60
2023-11-28T17:24:00,pth,3.60
2023-11-28T17:25:00,pth,1.20
2023-11-28T17:27:00,pth,3.60
2023-11-28T17:29:00,pth,3.60
2023-11-28T17:31:00,pth,2.40
2023-11-28T17:32:00,pth,2.40
2023-11-28T17:34:00,pth,2.40
2023-11-28T17:35:00,pth,1.20
2023-11-28T17:37:00,pth,2.40
2023-11-28T17:39:00,pth,3.60
2023-11-28T17:40:00,pth,4.80
2023-11-28T17:42:00,pth,14.40
2023-11-28T17:43:00,pth,6.00
2023-11-28T17:45:00,pth,14.41
2023-11-28T17:47:00,pth,14.40
2023-11-28T17:49:00,pth,14.40
2023-11-28T17:51:00,pth,14.40
2023-11-28T17:53:00,pth,15.60
2023-11-28T17:54:00,pth,7.20
2023-11-28T17:55:00,pth,7.20
2023-11-28T17:57:00,pth,15.60
2023-11-28T17:58:00,pth,7.20
2023-11-28T18:00:00,pth,14.40
2023-11-28T18:02:00,pth,13.20
2023-11-28T18:04:00,pth,14.40
2023-11-28T18:05:00,pth,6.00
2023-11-28T18:07:00,pth,14.40
2023-11-28T18:09:00,pth,14.41
2023-11-28T18:11:00,pth,14.40
2023-11-28T18:13:00,pth,13.20
2023-11-28T18:14:00,pth,7.20
2023-11-28T18:16:00,pth,13.20
2023-11-28T18:17:00,pth,7.20
2023-11-28T18:19:00,pth,13.20
2023-11-28T18:21:00,pth,15.60
2023-11-28T18:23:00,pth,9.60
2023-11-28T18:25:00,pth,14.40
2023-11-28T18:26:00,pth,2.40
2023-11-28T18:28:00,pth,13.20
2023-11-28T18:29:00,pth,6.00
2023-11-28T18:31:00,pth,10.80
2023-11-28T18:33:00,pth,8.40
2023-11-28T18:34:00,pth,7.20
2023-11-28T18:36:00,pth,9.59
2023-11-28T18:38:00,pth,3.60
2023-11-28T18:39:00,pth,1.20
2023-11-28T18:40:00,pth,1.20
2023-11-28T18:42:00,pth,3.60
2023-11-28T18:43:00,pth,1.20
2023-11-28T18:45:00,pth,2.40
2023-11-28T18:47:00,pth,2.40
2023-11-28T18:48:00,pth,1.20
2023-11-28T18:50:00,pth,2.40
2023-11-28T18:52:00,pth,2.40
2023-11-28T18:53:00,pth,1.19
2023-11-28T18:55:00,pth,2.40
2023-11-28T18:56:00,pth,1.20
2023-11-28T18:58:00,pth,3.60
2023-11-28T19:00:00,pth,2.40
2023-11-28T19:01:00,pth,1.20
2023-11-28T19:02:00,pth,1.20
2023-11-28T19:04:00,pth,2.40
2023-11-28T19:05:00,pth,1.20
2023-11-28T19:07:00,pth,2.40
2023-11-28T19:09:00,pth,2.40
2023-11-28T19:11:00,pth,2.40
2023-11-28T19:12:00,pth,1.20
2023-11-28T19:14:00,pth,2.40
2023-11-28T19:15:00,pth,1.20
2023-11-28T19:17:00,pth,2.40
2023-11-28T19:19:00,pth,3.60
2023-11-28T19:21:00,pth,2.40
2023-11-28T19:22:00,pth,1.19
2023-11-28T19:24:00,pth,2.40
2023-11-28T19:25:00,pth,3.60
2023-11-28T19:26:00,pth,7.20
2023-11-28T19:27:00,pth,7.20
2023-11-28T19:29:00,pth,14.40
2023-11-28T19:30:00,pth,7.20
2023-11-28T19:32:00,pth,13.20
2023-11-28T19:33:00,pth,7.20
2023-11-28T19:34:00,pth,7.20
2023-11-28T19:36:00,pth,13.20
2023-11-28T19:38:00,pth,13.21
2023-11-28T19:40:00,pth,13.20
2023-11-28T19:42:00,pth,13.20
2023-11-28T19:44:00,pth,13.20
2023-11-28T19:46:00,pth,13.21
2023-11-28T19:47:00,pth,7.20
2023-11-28T19:49:00,pth,13.20
2023-11-28T19:51:00,pth,13.20
2023-11-28T19:53:00,pth,14.40
2023-11-28T19:54:00,pth,6.00
2023-11-28T19:56:00,pth,13.21
2023-11-28T19:58:00,pth,14.40
2023-11-28T20:00:00,pth,9.59
2023-11-28T20:02:00,pth,13.21
2023-11-28T20:03:00,pth,6.00
2023-11-28T20:05:00,pth,9.60
2023-11-28T20:07:00,pth,13.20
2023-11-28T20:09:00,pth,9.60
2023-11-28T20:11:00,pth,9.59
2023-11-28T20:12:00,pth,6.00
2023-11-28T20:14:00,pth,9.60
2023-11-28T20:16:00,pth,13.20
2023-11-28T20:18:00,pth,8.40
2023-11-28T20:20:00,pth,9.60
2023-11-28T20:22:00,pth,9.60
2023-11-28T20:24:00,pth,3.60
2023-11-28T20:25:00,pth,1.20
2023-11-28T20:27:00,pth,2.40
2023-11-28T20:28:00,pth,1.20
2023-11-28T20:30:00,pth,2.40
2023-11-28T20:32:00,pth,2.40
2023-11-28T20:33:00,pth,2.40
2023-11-28T20:35:00,pth,6.00
2023-11-28T20:36:00,pth,3.60
2023-11-28T20:38:00,pth,3.60
2023-11-28T20:40:00,pth,2.40
2023-11-28T20:42:00,pth,3.60
2023-11-28T20:44:00,pth,2.40
2023-11-28T20:45:00,pth,2.40
2023-11-28T20:47:00,pth,2.40
2023-11-28T20:49:00,pth,2.40
2023-11-28T20:51:00,pth,3.60
2023-11-28T20:53:00,pth,2.40
2023-11-28T20:54:00,pth,2.40
2023-11-28T20:56:00,pth,2.40
2023-11-28T20:58:00,pth,2.40
2023-11-28T21:00:00,pth,2.40
2023-11-28T21:02:00,pth,3.60
2023-11-28T21:04:00,pth,3.60
2023-11-28T21:05:00,pth,1.20
2023-11-28T21:07:00,pth,3.60
2023-11-28T21:08:00,pth,1.20
2023-11-28T21:09:00,pth,1.20
2023-11-28T21:11:00,pth,3.60
2023-11-28T21:13:00,pth,2.40
2023-11-28T21:15:00,pth,2.40
2023-11-28T21:16:00,pth,1.20
2023-11-28T21:18:00,pth,2.40
2023-11-28T21:20:00,pth,3.60
2023-11-28T21:21:00,pth,1.20
2023-11-28T21:23:00,pth,2.40
2023-11-28T21:25:00,pth,3.60
2023-11-28T21:27:00,pth,2.40
2023-11-28T21:28:00,pth,2.40
2023-11-28T21:30:00,pth,2.40
2023-11-28T21:31:00,pth,1.20
2023-11-28T21:33:00,pth,2.40
2023-11-28T21:34:00,pth,1.20
2023-11-28T21:36:00,pth,2.40
2023-11-28T21:38:00,pth,2.40
2023-11-28T21:39:00,pth,1.19
2023-11-28T21:41:00,pth,2.40
2023-11-28T21:43:00,pth,2.40
2023-11-28T21:45:00,pth,2.40
2023-11-28T21:46:00,pth,1.20
2023-11-28T21:48:00,pth,2.40
2023-11-28T21:50:00,pth,2.40
2023-11-28T21:52:00,pth,3.60
2023-11-28T21:54:00,pth,2.40
2023-11-28T21:56:00,pth,2.40
2023-11-28T21:57:00,pth,2.40
2023-11-28T21:59:00,pth,2.40
2023-11-28T22:01:00,pth,3.60
2023-11-28T22:03:00,pth,2.40
2023-11-28T22:05:00,pth,3.60
2023-11-28T22:07:00,pth,2.40
2023-11-28T22:08:00,pth,1.20
2023-11-28T22:10:00,pth,2.40
2023-11-28T22:11:00,pth,2.40
2023-11-28T22:13:00,pth,2.40
2023-11-28T22:15:00,pth,3.60
2023-11-28T22:16:00,pth,1.20
2023-11-28T22:17:00,pth,1.19
2023-11-28T22:18:00,pth,1.20
2023-11-28T22:20:00,pth,3.60
2023-11-28T22:22:00,pth,2.40
2023-11-28T22:24:00,pth,3.60
2023-11-28T22:25:00,pth,2.40
2023-11-28T22:26:00,pth,1.19
2023-11-28T22:28:00,pth,3.60
2023-11-28T22:30:00,pth,3.60
2023-11-28T22:32:00,pth,2.40
2023-11-28T22:33:00,pth,2.40
2023-11-28T22:35:00,pth,2.40
2023-11-28T22:36:00,pth,2.40
2023-11-28T22:38:00,pth,2.40
2023-11-28T22:39:00,pth,1.20
2023-11-28T22:41:00,pth,3.60
2023-11-28T22:43:00,pth,2.40
2023-11-28T22:45:00,pth,2.40
2023-11-28T22:46:00,pth,1.19
2023-11-28T22:48:00,pth,3.60
2023-11-28T22:49:00,pth,1.20
2023-11-28T22:51:00,pth,3.60
2023-11-28T22:53:00,pth,3.60
2023-11-28T22:55:00,pth,2.40
2023-11-28T22:57:00,pth,3.60
2023-11-28T22:58:00,pth,1.20
2023-11-28T22:59:00,pth,1.20
2023-11-28T23:01:00,pth,3.60
2023-11-28T23:03:00,pth,2.40
2023-11-28T23:04:00,pth,1.20
2023-11-28T23:06:00,pth,2.40
2023-11-28T23:08:00,pth,2.40
2023-11-28T23:10:00,pth,2.40
2023-11-28T23:11:00,pth,1.20
2023-11-28T23:13:00,pth,2.40
2023-11-28T23:15:00,pth,2.40
2023-11-28T23:17:00,pth,2.40
2023-11-28T23:18:00,pth,1.20
2023-11-28T23:19:00,pth,1.19
2023-11-28T23:21:00,pth,3.60
2023-11-28T23:22:00,pth,1.20
2023-11-28T23:24:00,pth,3.60
2023-11-28T23:26:00,pth,3.60